Zurück zum Katalog

ATLAS 5 CENTAUR DEB

LostHEO
NORAD 49361·DEBRIS·🇺🇸 United States

Gestartet Oct 17, 2018 von Cape Canaveral Space Force Station

Loading…

Nächste Überflüge (nächste 24 Stunden)

TLE

VeraltetSource: Space-Track

Epoche: Feb 5, 2025, 07:41 UTC

1 49361U 18079FN  25036.32047101 -.00000030  00000-0  00000-0 0  9996
2 49361  10.0518 132.1462 4969129 114.0317 304.5508  1.51852726 19075

Verfolge ATLAS 5 CENTAUR DEB in Echtzeit mit AllMySat

Download on the App Store